Back to catalog

COSMOS 2301

AliveMilitaryPO
NORAD 23443·PAYLOAD·🇷🇺 Russia

Launched Dec 26, 1994 from Plesetsk Cosmodrome

Loading…

Next Passes (next 24 hours)

TLE

FreshSource: Space-Track

Epoch: Sep 14, 2026, 00:46 UTC

1 23443U 94086C   26257.03235554  .00000006  00000-0 -25373-4 0  9993
2 23443  82.5666 264.0679 0001230 356.7187  30.3791 12.62228945461115

Track COSMOS 2301 in real time with AllMySat

Download on the App Store